{"data":{"norad_id":57461,"intl_designator":"2023-107E","name":"STARLINK-30229","alt_names":[],"object_type":"PAYLOAD","status":"ACTIVE","operator":null,"country":"US","launch_date":"2023-07-28","launch_site_code":"AFETR","launch_vehicle":null,"mission":null,"orbit_class":"UNKNOWN","rcs_meters":null,"size_class":null,"mass_kg":null,"dimensions":null,"purposes":["comms"],"wikipedia_slug":null,"has_3d_model":false,"image_url":null,"decayed_at":null,"tle_current":{"epoch":"2026-09-20T21:21:53.045856Z","epoch_age_seconds":93856,"freshness":"FRESH","line1":"1 57461U 23107E   26263.89019729  .00000677  00000+0  34139-4 0  9993","line2":"2 57461  43.0062 321.1264 0001692 275.8596  84.2063 15.27577938174918","mean_motion":15.27577938,"eccentricity":0.0001692,"inclination_deg":43.0062,"raan_deg":321.1264,"arg_perigee_deg":275.8596,"mean_anomaly_deg":84.2063,"bstar":3.4139e-5,"rev_number":17491,"period_min":94.266875959556,"perigee_km":481.89435668424,"apogee_km":484.21618414855,"semimajor_km":6861.1922704164,"source":"CELESTRAK","updated_at":"2026-09-21T09:00:33.629438Z"}}}